Flag for Canada Weather past 2 weeks in Cape Dorset, Nunavut Territory, Canada

Now
1 °F

Light snow. More clouds than sun.


Feels Like: -16 °F
Forecast: N/A
Wind: 13 mph from Southwest

Location: Cape Dorset

Current Time: Jan 27, 2015 at 4:15:46 PM

Latest Report: Jan 27, 2015 at 3:00 PM


Visibility: 8 mi

Pressure: 29.70 "Hg

Humidity: 78%

Dew point: -4 °F

Location of Cape DorsetLocation

Historic Weather in Cape Dorset — Graph

°F

Cape Dorset temperature yesterday

Maximum temperature yesterday: -15 °F (at 11:00 PM)
Minimum temperature yesterday: -27 °F (at 12:00 AM)
Average temperature yesterday: -22 °F

Past Weeks' High & Low Weather Summary

 TemperatureHumidityPressure
High1 °F (Jan 27, 1:00 PM)84% (Jan 13, 3:00 AM)30.07 "Hg (Jan 13, 3:00 AM)
Low-27 °F (Jan 14, 2:00 AM)61% (Jan 14, 9:56 PM)29.35 "Hg (Jan 13, 1:00 AM)
Average-19 °F74%29.76 "Hg
* Reported Jan 12 3:00 PM — Jan 27 3:00 PM, Cape Dorset, Weather by CustomWeather, © 2014

Note: Actual official high and low records may vary slightly from our data, if they occured in-between our weather recording intervals... More about our weather records

Advertising

Cape Dorset weather history for previous 24 hours

 ConditionsComfort  
Time TempWeatherWind HumidityBarometerVisibility
3:00 PM
Jan 27
1 °FLight snow. More clouds than sun.13 mph78%29.70 "Hg8 mi
2:56 PM1 °FLight snow. Mostly cloudy.13 mph78%29.70 "Hg4 mi
2:00 PM1 °FLight snow. Overcast.15 mph78%29.69 "Hg1 mi
1:00 PM1 °FLight snow. Overcast.15 mph78%29.69 "Hg2 mi
12:00 PM0 °FLight snow. Mostly cloudy.18 mph84%29.69 "Hg4 mi
11:00 AM0 °FLight snow. Mostly cloudy.18 mph78%29.68 "Hg4 mi
10:00 AM0 °FLight snow. More clouds than sun.18 mph78%29.68 "Hg3 mi
9:47 AM0 °FLight snow. Broken clouds.18 mph78%29.67 "Hg3 mi
9:00 AM0 °FLight snow. Mostly cloudy.21 mph78%29.67 "Hg2 mi
8:00 AM-2 °FLight snow. Overcast.21 mph84%29.67 "Hg1 mi
7:00 AM-2 °FLight snow. Mostly cloudy.20 mph84%29.66 "Hg1 mi
6:00 AM-2 °FLight snow. Ice fog.17 mph84%29.66 "Hg1 mi
5:00 AM-4 °FLight snow. Ice fog.16 mph84%29.66 "Hg1 mi
4:00 AM-4 °FLight snow. Overcast.13 mph77%29.67 "Hg1 mi
3:00 AM-6 °FLight snow. Ice fog.20 mph84%29.66 "Hg1 mi
2:00 AM-6 °FLight snow. Overcast.17 mph77%29.66 "Hg1 mi
1:00 AM-9 °FLight snow. Low clouds.17 mph77%29.66 "Hg1 mi
12:03 AM-15 °FOvercast.15 mph76%29.67 "Hg9 mi
11:00 PM
Jan 26
-15 °FPassing clouds.16 mph76%29.67 "Hg4 mi
10:00 PM-17 °FMostly cloudy.13 mph69%29.67 "Hg7 mi
9:00 PM-17 °FPassing clouds.12 mph76%29.66 "Hg6 mi
8:00 PM-18 °FClear.17 mph75%29.65 "Hg9 mi
7:00 PM-18 °FClear.13 mph69%29.65 "Hg8 mi
6:00 PM-18 °FPassing clouds.18 mph69%29.65 "Hg6 mi
5:00 PM-20 °FSnow flurries. Partly cloudy.17 mph75%29.64 "Hg15 mi
4:00 PM-18 °FSnow flurries. Ice fog.15 mph75%29.63 "Hg2 mi
Weather by CustomWeather, © 2014

See weather overviewHow to use our weather pages